Theta_e
334 334 333 333 333 333 333 334 335 336 337 338 338 338 342 345 347 349 351 351 352 353 352 352 352 352 353 353 353 353 353 352 350 348 349 351 350 350 349 350 349 348 347 348 350 351 352 352 351 351 352 352 351 351 352 352 353 353 352 351 351 351 351 350 350 350 350 350 350 349 350 350 349 349 349 349 350 351 350 348 348 348 348 348 347
335 334 334 334 334 334 334 334 335 334 334 336 338 342 347 350 350 350 351 351 352 352 352 352 352 352 352 353 353 353 354 354 353 352 352 352 352 352 352 351 351 350 349 348 349 350 351 351 349 349 350 351 349 348 349 351 351 352 352 352 352 352 352 351 351 350 350 349 349 349 350 350 349 349 350 350 350 350 349 348 348 349 348 348 347
340 338 338 337 336 335 335 334 335 335 334 336 340 345 349 350 350 350 350 350 350 351 351 351 351 352 352 352 352 353 353 353 353 353 353 353 352 353 352 352 352 352 352 351 351 351 351 350 348 347 348 349 348 348 349 350 351 350 351 352 352 352 352 352 352 351 351 350 350 350 350 350 349 348 349 349 350 349 348 348 348 349 349 348 347
346 343 342 343 344 343 339 338 342 343 339 337 340 346 351 351 351 350 349 349 349 349 349 349 349 351 351 351 352 352 353 352 353 353 353 353 353 352 353 352 352 352 352 352 351 350 349 348 348 349 349 349 349 349 349 349 350 350 350 351 351 352 352 353 352 353 352 352 351 350 351 350 349 348 347 347 348 348 347 348 348 349 349 349 348
350 347 345 345 347 349 349 348 350 351 348 344 343 347 351 351 350 350 348 348 348 348 349 349 348 349 349 349 349 350 351 352 353 353 352 352 352 352 353 353 352 353 352 352 351 350 349 348 348 348 348 348 348 349 349 349 350 350 350 351 352 352 353 353 353 353 353 352 351 350 350 350 349 347 347 346 345 345 345 346 347 348 347 348 349
354 352 349 345 342 344 349 353 354 353 352 350 348 348 350 350 350 349 348 348 347 347 348 348 348 348 348 348 348 347 348 350 352 352 352 352 353 352 352 352 352 352 353 353 353 352 350 350 349 349 349 348 349 350 350 350 350 350 350 351 351 352 352 352 352 351 351 351 350 349 349 349 348 346 345 345 344 343 343 343 343 344 345 347 348
355 355 352 349 346 344 346 351 353 353 353 353 351 350 350 350 350 349 347 347 347 347 347 347 347 347 348 349 349 347 346 348 349 349 350 351 351 352 352 352 351 353 354 354 354 353 351 351 351 350 350 350 350 350 350 350 349 348 348 349 350 350 350 350 351 351 351 350 350 349 348 347 347 346 345 345 344 344 344 344 343 343 344 345 345
354 354 352 351 351 348 346 348 351 352 353 353 352 352 351 350 350 349 347 347 347 347 347 347 346 346 346 347 348 348 348 349 348 348 349 350 350 351 351 351 352 353 353 352 352 352 351 351 350 349 348 349 349 349 350 350 350 349 348 348 350 350 350 351 351 351 352 352 351 350 349 348 348 348 348 347 347 346 346 346 345 344 344 344 344
352 351 351 350 349 349 348 348 349 351 352 352 352 351 351 350 349 348 348 347 346 347 346 346 346 346 346 346 346 346 348 350 350 349 349 350 350 350 350 351 351 350 349 349 349 348 348 348 349 348 347 348 348 349 349 349 350 349 348 347 348 350 350 350 350 351 351 352 351 351 351 350 350 349 348 348 348 348 347 348 347 347 346 346 344
351 350 349 348 347 348 349 350 351 351 351 351 351 351 351 351 351 350 350 349 348 348 347 346 346 346 346 346 346 346 346 349 351 350 350 350 350 349 350 350 349 348 348 349 349 349 347 347 349 349 349 350 349 349 349 348 349 350 349 348 348 349 350 350 350 350 350 350 350 351 351 350 349 349 349 349 349 349 348 348 348 348 348 348 347
350 349 349 348 347 348 350 352 352 352 353 352 352 353 353 352 351 350 350 350 350 350 349 349 349 348 347 345 345 346 346 347 350 350 350 350 349 349 349 348 347 348 348 349 350 351 350 349 350 350 349 349 348 348 349 349 349 350 349 349 348 349 350 350 350 349 349 349 350 350 350 350 349 349 349 349 349 349 349 348 348 348 348 349 349
349 349 352 352 352 352 354 356 356 355 356 355 355 354 351 349 349 348 348 348 347 348 349 349 350 350 349 348 346 345 345 346 347 347 347 348 348 348 347 346 347 348 349 350 351 352 351 350 351 350 350 350 349 349 350 350 350 350 348 348 349 350 351 350 350 348 348 349 350 350 350 350 349 348 348 349 349 349 349 348 348 348 348 349 349
349 350 354 355 354 353 354 355 354 353 354 356 356 354 351 350 351 351 349 348 347 348 348 348 349 349 350 350 349 347 347 346 346 346 345 346 345 345 345 344 347 348 350 351 351 352 351 351 351 351 350 350 350 350 349 349 350 349 348 348 350 351 351 350 349 349 349 349 350 349 349 349 349 348 349 349 350 349 349 348 348 349 349 349 349
349 349 354 355 354 353 350 349 349 349 351 353 354 354 353 353 353 353 352 350 349 348 348 348 349 349 349 350 349 349 348 348 347 346 346 347 347 347 347 347 348 349 350 350 349 349 349 349 350 350 349 349 349 349 350 349 349 349 349 349 349 349 349 348 348 348 347 347 347 347 347 347 347 347 347 347 347 347 347 347 348 348 349 349 349
351 351 354 354 353 352 351 349 349 349 351 352 352 352 352 351 352 352 353 352 351 350 350 349 349 348 348 348 347 347 347 348 348 347 347 347 348 348 348 348 348 348 348 349 349 349 348 348 348 349 348 348 348 349 349 349 348 348 348 346 345 345 344 344 343 343 342 342 342 342 342 343 343 343 344 345 346 346 347 347 348 348 349 349 349
350 349 349 349 349 350 350 350 350 350 351 352 352 351 351 351 351 351 351 351 351 351 350 350 350 349 349 348 348 348 348 349 349 348 347 347 348 349 348 347 348 348 348 349 349 348 347 347 347 347 347 348 348 348 348 347 346 345 344 342 340 338 336 335 335 334 333 333 333 334 335 337 337 338 339 341 342 343 344 345 346 346 347 347 346
346 345 344 345 346 348 349 350 351 351 351 351 351 350 350 350 350 350 350 350 350 350 350 350 350 350 350 350 350 350 350 350 349 348 348 348 347 347 346 346 347 347 347 347 347 347 347 347 347 346 346 347 347 347 346 344 341 339 337 335 334 332 330 328 328 327 327 328 330 331 333 334 334 335 336 337 338 339 340 341 342 343 344 344 345
347 347 347 346 347 349 350 351 351 350 350 350 350 349 349 349 349 349 349 349 349 349 349 349 349 349 349 349 348 348 349 350 349 349 348 348 348 348 347 347 346 347 346 346 346 346 346 346 345 345 345 345 344 342 341 338 335 332 330 328 327 326 326 326 327 328 329 330 331 331 332 333 334 335 335 336 337 337 338 339 340 341 342 342 342
348 348 348 347 348 348 348 348 348 347 348 348 347 347 347 347 347 348 348 348 348 348 347 347 346 346 346 345 344 343 344 345 347 348 347 346 346 344 342 341 340 340 340 341 342 344 344 344 343 342 339 336 334 332 331 328 325 324 323 322 322 323 325 327 329 331 332 332 331 331 331 332 333 334 335 335 336 336 337 337 338 339 339 339 339
345 345 345 345 345 345 345 345 345 345 345 345 344 344 344 345 346 346 346 346 346 346 345 345 344 343 342 341 339 338 338 339 340 342 341 341 339 338 337 337 337 337 336 337 341 342 340 337 335 332 329 326 325 324 323 321 321 322 322 323 324 325 327 330 333 333 332 332 331 332 332 332 332 333 333 333 333 333 333 334 334 334 334 334 334
342 342 343 342 342 342 341 341 342 342 342 342 341 341 342 343 343 342 343 343 343 342 342 342 342 342 341 340 339 338 338 337 338 338 338 338 338 338 338 339 339 339 338 339 338 335 330 327 325 324 325 325 325 325 324 324 326 327 328 329 328 328 329 332 333 332 331 331 332 332 331 331 331 331 331 330 329 329 329 329 329 329 329 329 329
339 339 340 339 338 338 338 339 340 340 340 340 340 340 340 340 340 340 340 340 340 339 340 340 339 339 338 337 337 336 336 336 337 337 337 337 337 337 337 337 337 337 336 336 334 331 327 327 326 325 325 327 328 328 328 328 329 330 332 331 329 328 329 331 332 331 330 330 331 330 330 330 330 329 328 327 326 326 326 326 326 327 326 325 325
335 335 334 334 334 333 334 335 336 337 337 337 337 338 338 338 338 337 337 337 337 335 334 334 335 335 335 335 334 333 332 331 330 329 329 329 330 331 333 333 333 332 331 330 329 327 327 328 328 327 328 329 330 330 331 331 331 331 331 330 329 327 328 330 331 330 329 330 330 329 329 329 329 327 326 325 323 323 324 325 325 325 325 324 323
334 334 334 333 333 333 334 334 334 334 334 335 334 334 334 334 332 331 330 330 330 329 327 326 326 328 327 326 324 321 318 316 315 314 314 316 318 321 324 324 324 325 325 324 324 325 327 328 329 329 330 331 331 331 332 332 331 330 330 330 329 328 328 330 330 329 328 329 329 328 328 328 327 325 324 323 322 321 321 321 321 322 324 324 324
333 333 333 332 332 332 332 331 331 331 331 332 333 332 331 330 330 329 329 328 327 326 323 318 315 315 314 312 310 309 307 307 307 307 308 310 311 313 314 316 321 325 326 327 327 328 330 331 331 330 331 331 332 332 331 331 330 329 329 328 328 328 328 328 329 328 327 327 327 326 326 325 324 322 322 321 321 319 318 318 317 318 320 322 322
332 331 331 330 329 328 327 327 326 326 327 328 330 331 331 329 328 327 327 326 326 324 320 315 309 308 308 307 307 307 307 306 307 307 307 308 310 313 315 319 324 328 328 329 330 330 331 331 331 331 331 331 331 330 329 328 328 327 326 326 326 327 327 326 326 326 326 326 325 324 323 322 321 320 321 322 321 320 319 318 317 316 317 318 319
328 329 328 329 329 328 326 325 325 327 328 328 329 332 332 329 328 327 324 323 323 321 318 314 309 308 309 309 308 308 308 308 308 308 309 310 312 315 320 324 326 327 327 328 329 330 329 329 328 328 328 328 328 328 327 326 325 324 323 324 324 324 324 324 324 324 325 325 324 323 321 321 321 321 321 322 322 321 320 319 318 317 316 316 316
324 324 324 323 324 326 327 326 323 322 322 320 321 328 332 331 331 328 323 322 323 323 321 316 310 309 310 311 311 311 311 310 310 310 311 314 316 318 322 325 326 327 327 327 327 326 326 325 325 324 324 324 323 323 322 322 322 320 321 322 323 323 323 322 323 323 323 323 323 322 322 321 321 321 321 321 322 321 320 320 319 319 317 316 315
323 323 321 320 319 320 322 322 318 314 312 310 312 322 328 328 325 320 315 315 318 319 317 313 310 311 312 312 312 313 312 312 312 312 314 317 320 322 324 326 327 328 328 327 327 326 325 325 324 324 323 322 321 320 320 319 318 318 319 319 319 320 320 320 319 320 320 321 321 321 321 321 321 321 321 321 321 320 320 320 319 319 318 317 316
324 323 324 322 320 317 316 315 313 312 311 310 310 314 316 315 313 312 311 311 312 312 311 311 311 312 313 313 313 314 314 314 313 313 314 317 320 322 324 326 327 327 327 327 327 326 325 325 323 322 322 321 320 320 319 318 316 316 317 316 315 314 314 314 314 314 316 318 319 319 319 319 319 319 319 319 319 318 318 318 318 318 318 318 317
325 325 325 323 321 319 316 315 314 314 314 314 314 314 314 313 312 312 313 312 312 312 312 312 313 313 313 314 314 314 315 315 315 314 315 315 317 319 320 322 324 325 325 326 326 326 325 324 323 322 321 320 318 318 317 316 314 314 314 313 313 312 312 312 312 312 312 313 315 315 315 314 314 314 314 313 313 313 313 313 313 314 315 315 316
324 324 324 322 321 319 317 317 317 317 318 320 320 320 319 318 317 316 316 315 314 314 313 313 313 313 314 314 315 315 315 315 315 315 315 315 315 316 316 317 318 319 320 321 322 322 322 321 320 320 319 317 316 315 314 313 313 313 312 312 312 312 311 311 311 311 311 311 311 311 311 310 310 310 309 310 310 309 309 309 309 309 310 310 311
324 322 320 320 321 320 320 320 321 322 323 324 324 323 322 322 322 322 321 321 320 318 318 317 315 315 315 315 315 315 315 315 314 315 315 315 316 316 316 316 317 317 317 317 317 316 316 316 316 316 315 314 313 313 313 312 312 312 311 311 311 311 311 311 310 310 310 310 310 310 309 309 309 308 308 308 308 308 308 307 307 307 307 307 307
323 320 319 320 322 322 321 321 322 323 323 324 325 325 324 324 324 324 324 324 323 323 322 321 320 320 319 318 315 314 314 314 314 315 315 315 316 316 317 318 318 318 317 316 316 315 314 314 314 314 314 313 312 312 311 311 311 311 311 311 311 311 310 310 310 310 310 310 310 309 309 309 309 308 307 307 306 306 306 306 306 306 306 305 305
321 320 321 323 325 324 323 322 322 322 323 323 324 326 325 325 325 325 325 325 325 323 322 322 322 322 322 321 318 315 314 314 314 315 316 317 318 318 318 319 319 318 317 317 316 315 315 314 314 314 313 312 311 311 311 311 310 310 310 311 311 311 310 310 310 310 310 309 309 309 309 309 308 308 307 306 305 305 305 305 305 305 304 304 304
322 323 322 324 326 326 325 325 325 324 324 324 323 324 325 324 324 324 325 326 325 324 323 322 322 322 322 322 320 316 314 314 315 316 317 319 319 318 318 318 318 318 317 317 317 316 315 314 314 313 312 312 312 312 311 310 310 310 310 310 310 310 310 310 310 309 309 309 309 309 308 308 307 307 306 305 305 304 304 304 303 303 303 304 304
322 324 324 324 326 326 326 325 324 324 324 323 321 321 323 322 321 322 324 325 326 326 324 323 323 323 323 323 321 318 316 316 317 317 318 318 318 318 318 318 318 318 318 317 316 315 314 314 313 313 313 312 312 312 311 310 310 310 309 309 309 309 309 309 308 308 308 308 307 307 307 306 306 305 305 304 304 303 303 302 302 302 302 303 304
322 324 326 326 326 326 326 325 323 320 320 319 318 319 322 322 321 321 321 323 325 326 325 324 324 324 323 323 321 320 318 318 319 319 319 318 318 319 318 318 318 318 317 316 316 315 314 314 313 313 313 313 312 312 311 310 310 310 309 309 309 308 308 308 307 307 307 306 306 306 305 305 305 305 304 303 302 301 301 301 301 300 301 302 303
320 322 323 324 325 325 325 325 323 320 318 317 317 319 322 322 321 321 320 321 322 323 323 324 324 323 322 322 321 320 318 319 320 320 319 319 319 318 318 318 318 317 316 316 315 315 314 314 314 314 313 313 313 312 311 310 310 310 309 308 308 308 308 307 306 306 306 305 305 305 305 304 304 303 303 301 300 298 298 299 299 298 299 301 303
318 319 319 319 320 320 320 321 321 320 320 319 319 320 321 321 321 321 321 321 321 320 320 321 321 320 320 320 319 319 319 319 320 321 320 319 319 318 318 318 318 317 317 316 315 315 314 314 314 313 313 313 313 312 311 311 310 310 309 308 308 308 307 307 306 306 305 305 304 304 303 303 303 301 300 299 298 297 296 297 297 297 298 300 302
320 321 319 317 316 316 315 315 317 318 320 320 319 320 320 320 320 321 320 320 320 319 319 319 319 319 320 319 318 318 319 320 320 320 319 319 319 319 318 318 317 317 316 316 315 315 314 314 313 313 313 312 312 311 311 310 310 309 309 308 308 307 307 306 306 305 304 303 302 302 302 301 300 299 298 298 297 296 296 296 296 297 298 300 301
320 320 318 317 317 317 316 316 317 318 319 320 319 319 319 319 319 319 319 319 318 318 319 320 319 319 319 318 317 317 318 318 319 319 318 318 319 318 317 317 316 316 315 315 314 314 314 313 312 312 311 311 311 311 310 310 309 308 308 307 307 306 306 305 305 304 302 301 300 300 299 298 298 298 297 297 296 296 295 296 296 297 298 299 300
319 319 317 315 316 317 317 318 319 319 319 319 319 318 318 318 318 318 318 318 318 318 318 319 319 318 317 317 316 316 317 317 318 318 318 318 318 318 317 316 316 315 315 314 313 313 312 312 312 311 311 311 310 310 309 309 308 307 306 306 306 306 305 304 303 302 300 299 299 298 298 297 296 296 296 296 295 295 295 295 296 297 298 298 299
317 318 316 315 316 317 316 316 317 318 318 318 317 317 316 316 316 317 317 317 317 317 318 318 317 317 316 316 316 316 317 317 317 317 317 317 317 316 316 315 315 314 313 313 312 312 312 311 311 311 310 310 309 309 308 308 307 306 306 306 305 305 304 303 301 300 299 298 298 297 297 296 296 296 295 295 295 295 295 295 296 297 297 298 298
316 317 317 317 317 317 316 315 314 315 317 316 315 315 315 315 315 316 316 316 316 316 316 316 316 316 316 316 315 315 316 316 316 316 316 316 315 315 314 314 313 313 313 312 312 311 311 311 310 310 310 309 309 308 308 307 306 306 305 304 303 302 301 300 299 298 298 297 297 297 296 296 296 296 295 295 295 295 295 295 296 297 297 298 298
316 315 316 317 317 316 316 315 315 315 315 314 314 314 314 314 314 315 315 314 314 313 314 315 315 315 315 315 315 314 315 315 315 315 315 315 314 314 313 313 312 312 311 311 311 311 310 310 309 309 308 308 307 307 306 305 305 304 303 302 301 300 299 298 297 297 297 296 296 296 296 296 296 296 295 295 295 295 295 295 296 296 297 298 299
315 313 314 315 316 316 316 315 315 315 314 314 313 313 313 313 313 313 313 313 312 312 313 313 314 314 314 313 313 313 313 314 314 314 314 314 313 313 312 312 312 312 311 311 311 310 310 309 307 307 306 306 305 305 304 303 303 302 302 301 300 300 298 297 296 296 296 296 297 297 296 296 295 295 295 295 295 295 295 296 296 297 297 297 298
313 313 314 314 314 315 314 313 313 313 313 313 313 312 312 313 312 312 312 312 312 312 312 312 312 312 312 312 312 312 312 312 312 312 312 312 312 312 312 311 311 310 309 308 308 307 306 305 305 304 305 305 304 304 303 302 302 301 301 300 300 299 297 296 296 296 296 296 297 296 296 295 295 295 295 295 295 296 296 297 297 298 298 298 298
313 314 314 313 312 313 312 313 313 313 312 313 312 312 312 312 312 312 312 311 311 311 311 311 311 311 311 311 311 310 310 310 310 309 309 309 309 309 308 308 307 306 305 305 304 304 303 303 304 304 304 304 303 303 302 302 301 301 300 300 299 298 297 296 296 296 296 296 296 296 295 295 294 295 295 295 296 296 297 297 298 298 298 298 298
312 313 313 312 312 312 311 312 313 312 311 312 312 311 311 312 311 311 311 311 310 310 310 310 310 310 310 309 309 309 308 308 308 307 307 306 306 306 306 305 305 304 304 304 304 303 303 303 303 303 303 303 302 302 302 301 300 300 299 299 298 297 296 296 296 296 295 295 295 295 295 295 295 295 295 296 296 297 297 297 298 297 297 297 297
312 313 312 312 312 312 311 311 311 311 311 312 312 311 311 311 311 310 311 310 310 310 310 309 309 309 308 308 308 307 307 307 307 306 306 306 305 305 305 305 304 304 304 303 303 303 303 303 303 303 303 302 302 301 300 300 299 299 298 298 297 296 295 295 296 295 295 295 295 295 295 295 295 295 296 296 297 297 297 297 298 297 297 297 297
Wind_Speed
26 26 26 26 26 25 25 24 23 22 22 22 21 18 14 11 10 9 10 11 11 11 12 13 14 13 13 13 12 12 11 11 11 11 12 11 10 10 9 10 11 11 11 11 10 10 11 12 11 10 10 11 12 12 12 12 13 13 14 15 16 16 15 14 16 18 16 14 14 14 14 15 13 12 14 14 12 12 12 13 13 14 14 15 17
24 24 24 25 25 24 24 24 23 22 22 20 19 17 14 12 11 10 10 11 10 11 13 14 14 14 15 15 15 14 13 11 11 11 12 11 10 10 10 10 11 12 12 12 12 13 14 14 13 12 12 13 13 14 14 14 14 14 14 14 15 15 15 15 15 17 17 15 14 14 14 15 14 13 13 15 14 14 14 14 15 17 17 18 19
23 23 22 22 23 22 23 23 22 22 22 20 18 17 15 13 13 13 13 13 12 13 14 14 14 15 16 16 16 15 15 14 12 12 12 12 12 12 12 12 12 13 13 13 14 15 15 16 15 14 13 13 14 14 14 15 15 16 15 15 16 16 15 14 15 16 18 17 16 16 15 14 14 13 13 15 16 16 17 17 18 20 21 22 22
23 23 22 21 21 21 22 21 19 19 20 20 19 18 16 16 15 16 15 14 15 15 14 13 13 13 15 15 15 15 15 14 14 13 13 14 14 13 13 14 14 14 13 13 14 15 15 15 15 15 14 14 14 14 14 15 15 16 16 15 15 15 14 13 14 15 17 19 18 18 16 15 14 13 13 15 15 16 17 18 18 19 20 21 22
23 22 20 19 19 20 22 22 19 17 17 17 19 19 19 18 17 17 17 15 16 17 17 16 14 14 14 14 14 14 14 14 14 15 15 15 15 14 14 14 14 14 13 12 14 15 15 15 15 15 15 14 14 14 13 14 14 15 15 15 14 15 15 14 15 16 18 20 20 19 18 16 15 14 14 15 16 16 17 17 16 17 19 19 19
23 23 21 19 18 19 22 26 24 21 18 16 17 19 20 19 18 19 19 18 19 19 19 19 18 18 17 16 14 13 13 14 15 16 16 16 17 16 15 15 14 14 13 13 14 15 15 15 14 15 15 14 13 13 13 13 14 15 15 14 14 15 16 16 17 18 18 19 20 20 19 18 18 17 15 16 18 18 18 18 18 18 19 18 17
24 25 24 23 23 21 23 26 26 25 23 20 18 19 20 20 21 21 20 20 20 20 20 20 20 19 19 18 17 16 15 15 15 15 15 15 16 16 16 16 16 16 14 13 14 16 16 15 15 15 14 14 14 14 14 14 14 15 15 15 15 16 16 16 17 18 19 19 20 21 21 21 20 19 17 17 18 18 18 19 20 19 19 19 20
24 24 25 26 27 25 24 25 24 23 23 22 22 21 21 22 23 22 22 21 20 19 18 19 19 19 18 19 20 19 19 18 17 16 16 15 15 16 16 16 17 18 18 16 15 16 16 16 16 15 15 15 16 16 16 16 15 15 15 15 16 16 17 17 17 19 20 21 21 21 22 21 20 19 19 19 19 18 17 19 21 20 19 20 21
24 24 25 26 27 26 24 24 24 22 22 23 23 23 23 23 24 24 24 24 23 22 21 19 19 18 17 18 19 20 21 22 21 19 18 17 17 16 16 16 18 19 19 18 17 17 17 17 16 15 15 16 16 17 17 17 17 16 14 14 15 16 17 18 18 19 20 21 21 21 21 21 21 21 21 21 20 21 19 20 22 22 21 22 22
23 22 22 22 23 24 23 24 24 23 23 24 23 22 22 22 23 24 24 24 24 24 24 23 22 21 19 18 19 20 20 22 24 23 21 20 19 18 18 18 19 19 18 17 17 18 18 17 16 16 16 16 17 17 17 17 17 15 14 14 15 16 16 17 17 17 18 19 20 20 21 22 22 21 21 21 21 22 21 21 22 23 23 24 24
21 20 20 19 20 22 23 23 23 24 23 22 21 20 18 18 19 21 22 22 22 23 23 23 23 22 22 21 21 20 18 19 21 22 22 21 20 20 20 19 19 18 18 18 18 19 19 17 16 17 17 18 19 18 18 17 16 15 16 16 15 15 17 17 17 17 17 19 20 21 22 23 23 22 22 22 22 23 22 22 22 23 24 25 25
20 19 17 18 19 18 18 18 19 19 19 18 18 17 16 17 18 18 19 20 21 21 22 22 22 21 22 22 22 21 19 19 20 20 21 21 20 18 17 18 18 17 17 18 18 17 17 17 16 17 18 19 20 19 17 17 17 17 18 17 15 16 17 18 18 18 17 18 21 22 22 23 24 23 22 22 22 23 23 22 22 23 24 24 25
20 19 17 16 16 15 14 13 12 12 12 13 14 15 16 18 18 18 18 18 18 19 20 22 22 22 21 22 22 21 20 20 20 21 23 22 19 17 17 17 17 16 15 16 16 16 16 16 16 16 17 17 18 18 18 18 18 18 17 15 14 15 17 17 18 18 18 19 21 21 21 22 24 24 23 22 23 25 26 25 24 24 25 25 25
20 20 18 14 13 14 14 14 13 13 13 14 15 15 16 17 17 17 17 17 17 17 17 18 19 20 21 21 21 21 19 19 20 21 20 17 15 15 16 16 16 15 15 16 16 16 16 16 15 15 16 15 16 16 16 16 16 15 14 12 12 14 14 15 16 17 18 19 20 21 21 23 24 25 25 26 27 27 28 28 28 27 26 25 24
17 17 16 12 10 10 11 12 13 14 14 15 15 15 15 16 17 17 17 16 16 15 16 16 17 18 20 21 21 21 20 20 20 19 18 15 14 14 15 15 15 16 16 15 15 16 17 17 16 15 14 14 14 15 14 14 14 13 13 12 12 13 14 14 15 16 17 18 19 21 22 23 24 25 26 26 27 27 27 27 27 26 25 25 25
12 11 11 10 9 9 9 11 13 14 15 15 15 14 14 15 16 16 16 15 14 15 16 17 16 17 18 20 21 21 20 20 20 19 18 16 15 15 15 15 15 15 14 14 14 15 15 15 14 13 12 12 13 13 13 13 13 12 12 11 11 11 12 13 14 15 16 17 17 18 19 20 21 22 23 24 25 25 25 25 25 24 24 25 25
8 9 10 11 11 10 10 11 12 13 13 13 12 12 12 13 14 13 13 12 13 13 14 14 14 14 16 18 19 19 20 20 20 19 17 16 15 15 15 15 14 13 12 13 13 13 13 13 12 12 12 11 10 11 12 12 11 10 10 9 9 10 10 10 11 12 12 13 14 14 15 17 18 19 19 19 20 20 19 19 19 19 18 18 18
5 6 7 9 9 9 10 10 10 10 9 8 8 8 8 9 10 9 8 8 9 10 11 12 13 14 16 17 16 16 19 19 19 17 15 14 14 13 12 12 10 9 9 9 8 9 9 10 10 10 10 8 8 9 10 10 10 9 9 9 9 10 10 10 10 10 10 11 12 13 14 15 15 16 16 15 15 14 13 12 11 12 11 12 13
5 5 6 6 6 6 6 6 6 6 6 5 4 3 3 4 4 4 4 4 4 5 6 6 7 9 10 10 7 6 9 11 13 13 12 11 10 8 6 6 4 3 3 3 4 4 5 6 7 7 6 6 6 7 8 9 9 9 9 9 10 10 11 11 11 10 11 12 13 13 14 14 13 13 14 14 13 12 11 10 9 9 8 9 10
7 7 7 6 5 5 4 3 2 3 3 2 4 5 5 5 5 5 4 4 4 4 3 2 0 1 1 1 2 2 3 5 6 6 6 5 5 3 2 3 2 2 3 3 4 3 2 3 4 4 4 4 4 5 6 6 7 7 8 9 9 9 10 10 10 10 12 12 12 12 12 12 12 12 12 12 12 12 11 10 9 9 8 8 9
13 12 11 10 10 9 9 9 8 8 7 6 7 8 8 7 7 7 7 6 6 7 6 5 4 6 7 6 6 5 6 6 5 3 1 0 0 0 1 1 1 1 1 1 1 1 1 1 1 2 3 3 3 3 3 4 5 6 7 9 10 10 10 10 9 10 11 11 10 10 11 12 12 12 12 12 12 13 13 12 12 12 11 10 10
17 16 15 15 16 16 16 15 14 14 13 12 11 13 13 12 11 11 10 9 9 9 9 7 6 8 8 7 7 7 7 7 5 4 4 3 3 2 2 1 2 3 3 3 2 3 3 2 1 1 1 1 0 1 2 4 5 7 9 11 12 12 12 10 9 9 9 9 9 10 12 13 13 13 13 13 14 13 13 13 13 13 12 12 12
21 21 21 22 22 22 22 21 20 20 19 17 16 16 17 16 15 14 12 11 11 11 11 10 8 8 8 8 8 7 7 6 6 5 5 4 3 3 3 3 4 4 4 4 4 4 4 3 3 4 4 3 1 2 4 6 8 9 10 11 12 13 12 10 9 9 8 8 9 11 13 13 12 13 14 14 14 13 13 12 13 12 11 10 11
20 20 20 20 21 21 21 21 20 19 19 17 17 18 18 18 18 16 14 13 13 13 12 10 9 8 8 8 8 7 7 6 6 5 5 5 4 4 4 5 6 7 7 6 6 5 5 5 4 4 3 2 3 5 6 8 9 10 10 10 11 11 11 10 9 9 9 9 9 11 12 12 12 13 13 14 13 13 13 13 13 13 11 11 11
15 16 16 16 17 17 17 17 17 17 16 15 15 17 17 17 16 15 13 12 11 11 12 11 9 9 9 9 9 9 8 8 7 7 7 7 7 7 8 9 10 10 9 8 7 7 6 5 4 3 2 3 4 5 6 7 9 9 9 10 10 9 8 8 9 10 11 11 11 12 12 11 11 11 11 10 9 9 10 12 12 13 12 12 13
12 12 13 13 13 13 13 14 14 14 14 13 13 14 14 13 13 12 11 9 8 10 13 13 11 10 10 11 10 10 10 10 10 10 10 10 10 11 12 12 12 11 10 9 9 9 8 6 4 3 3 3 4 5 6 7 8 9 9 10 9 8 7 7 8 9 10 11 11 11 9 9 8 7 6 7 7 9 10 11 11 11 11 11 11
11 10 10 10 9 9 10 11 11 11 10 9 9 10 10 9 10 10 8 7 6 8 11 12 11 11 11 11 11 11 11 11 12 12 12 12 12 13 13 13 12 11 10 11 10 9 7 5 4 3 3 4 4 5 5 5 7 9 10 10 10 10 10 9 9 8 8 9 9 8 6 6 6 7 8 9 11 12 12 13 13 13 12 11 11
12 10 9 8 6 6 7 7 7 7 6 5 4 5 7 7 6 6 6 5 4 5 7 9 9 10 11 11 11 11 12 12 12 12 12 12 12 12 12 13 12 12 11 10 9 8 6 4 4 4 4 5 5 5 6 8 10 11 11 11 11 11 11 10 9 9 9 8 7 7 6 7 8 9 10 11 12 13 14 15 16 16 15 15 14
11 11 11 10 8 6 5 5 5 5 6 5 4 5 6 4 3 4 6 6 5 3 3 5 7 9 9 10 11 11 12 12 12 12 12 11 11 11 11 11 10 10 9 8 6 5 4 3 3 4 4 5 6 7 9 11 11 11 11 11 10 9 9 10 10 11 11 11 10 10 10 10 11 11 12 12 13 14 15 16 17 17 17 17 16
8 9 9 9 8 6 6 6 6 7 8 8 8 7 7 7 6 7 8 8 7 6 5 6 8 8 9 9 10 11 11 11 11 11 10 9 9 9 9 8 8 7 7 6 6 5 3 1 2 3 4 5 6 7 8 9 10 10 9 9 9 9 10 10 11 11 12 12 13 14 15 15 15 16 16 17 17 17 17 17 18 18 18 18 18
6 6 5 4 5 4 5 6 7 8 9 10 10 10 10 9 9 8 8 8 8 8 7 7 8 8 8 8 9 9 9 9 9 9 8 8 7 6 6 5 4 3 3 3 4 4 2 1 2 3 4 5 6 7 8 9 10 11 11 11 12 12 12 12 12 12 13 13 14 16 17 18 18 19 19 19 19 19 19 18 18 18 18 18 19
7 6 4 2 3 3 4 6 7 8 9 11 12 12 11 10 9 9 9 9 9 9 9 8 9 8 7 6 7 7 7 7 7 7 6 6 5 4 4 3 2 1 1 3 2 1 1 2 3 3 5 6 7 8 9 10 12 12 13 12 13 13 14 15 15 15 14 14 14 16 17 19 20 20 20 20 20 20 21 21 21 20 20 19 19
6 5 4 4 4 5 7 8 8 8 9 9 11 11 11 10 10 9 9 9 10 10 9 9 8 8 7 6 5 5 5 5 5 4 4 3 3 2 1 1 1 1 2 4 4 4 4 4 4 4 5 7 8 8 9 11 12 13 13 12 13 13 14 15 16 16 15 15 16 17 19 20 22 23 23 23 23 24 24 24 24 23 23 21 20
6 5 5 6 6 7 7 8 8 8 7 7 8 9 8 7 7 7 7 8 8 8 8 7 8 8 7 5 4 3 3 3 3 2 2 2 2 2 1 1 1 2 4 5 6 6 5 5 5 5 6 7 8 9 10 12 14 14 12 12 12 13 14 16 17 19 19 20 20 20 21 23 23 24 25 25 26 26 26 25 25 24 24 23 20
9 8 7 7 8 7 7 6 5 5 5 5 5 5 5 4 3 3 3 3 4 5 5 6 6 6 5 4 3 3 3 2 2 2 1 0 1 3 4 4 3 4 5 6 6 6 5 5 5 5 5 6 8 10 12 14 15 14 13 12 12 13 15 16 18 19 20 21 21 22 23 24 24 24 25 26 27 27 27 25 24 23 22 21 20
12 11 10 10 9 8 7 6 5 4 4 4 3 3 3 3 2 1 2 2 2 1 3 4 4 4 4 3 3 3 3 3 3 3 2 1 2 3 5 5 5 5 5 6 6 6 5 4 4 4 4 6 8 10 12 14 15 16 15 15 14 14 15 17 18 19 20 21 22 23 24 24 24 25 25 26 27 28 27 26 24 22 20 19 18
11 11 11 11 10 9 9 9 8 7 6 6 5 4 4 4 4 4 5 6 6 6 4 2 2 2 3 2 2 3 3 3 3 3 2 3 4 4 4 4 4 5 6 7 6 6 4 3 4 5 6 7 10 11 13 15 17 18 18 17 17 17 17 18 19 20 21 23 24 24 25 25 25 25 26 28 29 30 29 27 25 22 18 16 15
11 11 11 11 10 10 10 10 9 8 8 8 9 7 4 3 2 3 6 7 7 7 6 4 4 3 3 4 4 3 2 3 4 4 3 4 4 5 5 5 4 4 5 6 5 5 4 4 5 8 10 11 13 14 14 16 19 20 20 20 20 20 20 20 21 23 24 26 27 27 27 27 27 27 28 30 30 29 28 27 25 21 16 13 13
11 10 10 10 10 11 10 10 10 9 8 9 9 8 5 2 1 2 4 7 7 7 6 5 5 6 6 6 5 3 2 4 5 3 2 3 4 4 5 6 6 5 5 5 5 5 5 5 7 9 11 12 14 15 15 17 20 21 21 21 21 21 22 23 24 25 26 28 29 30 30 30 30 32 33 31 27 24 23 23 23 20 14 11 11
11 9 7 8 9 11 11 11 12 11 9 9 9 7 5 4 3 2 3 4 5 5 5 5 6 7 6 6 5 3 3 6 6 4 3 4 5 6 6 7 8 7 7 6 6 5 6 7 8 10 11 13 14 15 16 19 21 22 22 22 22 22 23 24 24 26 28 30 31 30 31 31 32 34 33 31 27 24 21 19 18 16 11 9 9
10 8 7 6 7 8 8 10 12 12 10 8 7 6 5 5 4 2 2 2 2 3 6 7 8 8 8 7 5 4 5 7 7 5 4 5 8 9 8 7 7 7 7 7 7 8 9 9 10 11 12 12 13 14 17 20 22 23 24 23 23 23 24 25 26 29 31 31 31 30 30 31 32 33 32 30 28 26 22 17 13 10 7 7 8
11 10 9 8 7 6 6 7 8 8 7 6 5 4 3 4 4 3 3 3 2 5 8 11 12 11 9 7 5 5 5 6 6 5 3 4 7 8 7 6 6 6 7 7 8 9 10 10 10 10 11 12 13 15 18 20 22 23 24 24 24 24 24 26 28 31 32 31 30 30 30 30 30 30 29 27 26 24 20 15 12 9 6 6 8
13 11 10 10 8 6 5 6 7 7 8 7 5 4 4 4 5 5 4 4 4 6 10 12 11 9 7 5 4 5 6 6 5 5 5 7 9 9 8 7 7 7 7 7 8 9 10 10 11 12 12 14 16 18 19 20 22 23 24 25 24 24 25 27 29 30 30 29 28 29 30 29 28 27 25 24 23 21 16 12 10 10 8 7 8
15 14 13 12 11 8 6 6 6 7 7 6 5 6 6 5 4 4 4 4 5 8 10 10 8 7 6 4 3 4 6 7 6 5 7 9 9 9 8 8 7 7 8 8 9 10 11 11 12 13 14 16 18 18 18 19 21 23 24 24 24 25 26 28 28 28 27 27 27 27 27 26 24 23 22 20 17 15 12 10 9 9 9 9 10
16 15 14 14 12 10 8 8 6 7 8 7 6 6 5 5 4 3 4 5 6 7 8 7 6 6 6 5 4 4 5 6 6 5 6 6 7 7 8 8 8 8 9 9 10 11 12 13 13 14 16 17 17 17 18 19 21 23 23 23 24 26 27 28 27 26 25 24 24 23 22 21 21 21 19 15 12 11 11 11 10 10 10 11 12
14 12 11 12 12 11 11 9 8 7 7 7 6 6 7 7 6 5 4 4 4 5 5 6 7 6 6 4 3 3 3 3 4 4 3 3 4 5 5 6 7 7 8 9 10 11 12 13 16 18 19 20 20 20 20 22 23 23 23 23 25 26 27 27 24 22 20 19 19 19 19 19 19 17 14 12 10 11 11 12 11 11 11 12 13
12 10 10 10 11 12 11 10 9 9 8 7 7 7 7 7 6 5 3 2 2 4 4 5 5 5 4 3 1 1 1 2 2 3 3 3 4 5 6 7 8 9 11 13 13 13 15 17 20 22 22 22 21 21 22 22 22 22 22 23 25 27 27 23 19 16 16 16 17 17 16 16 14 12 11 11 11 11 11 11 11 11 12 12 13
11 11 10 9 10 11 10 9 8 8 9 10 8 6 6 7 7 6 5 4 3 3 2 2 2 2 1 1 0 0 1 2 3 4 5 6 8 9 10 11 11 13 15 16 16 16 17 19 21 21 21 21 20 20 21 21 21 21 22 24 26 26 23 18 14 15 16 16 16 16 15 12 10 9 10 10 9 9 10 11 11 12 12 12 12
12 12 10 9 10 10 9 10 10 9 10 10 9 7 7 7 7 6 6 5 4 3 3 3 3 2 2 1 1 1 2 2 3 4 5 6 7 8 9 11 12 13 14 14 15 16 17 19 20 20 20 20 20 20 19 19 20 21 22 24 26 24 19 14 14 15 16 16 16 15 13 9 7 7 8 8 7 8 11 12 13 13 14 13 13
13 12 10 11 11 10 9 11 11 10 10 10 9 8 7 6 5 4 5 4 3 3 3 3 3 2 2 2 2 2 2 2 3 4 5 6 7 8 9 11 12 12 13 13 14 16 18 19 20 20 20 19 19 19 19 19 19 21 22 23 23 20 16 13 14 15 16 17 17 14 10 7 6 6 6 7 8 10 12 13 14 15 15 15 16
15 13 12 12 12 11 10 11 10 10 10 10 9 8 7 6 6 6 6 5 5 5 5 5 4 4 3 2 3 4 4 5 6 7 8 9 9 9 10 11 11 12 12 13 15 17 19 19 19 19 19 19 18 18 18 19 20 21 21 21 19 16 13 12 13 14 15 16 16 13 9 6 5 5 6 8 10 13 14 14 15 16 16 16 17
Wind_Direction
212 213 216 218 219 219 218 218 217 216 216 219 224 223 215 216 224 223 223 228 228 231 236 237 237 245 249 251 260 265 262 261 258 250 247 250 256 256 254 253 258 265 263 257 257 264 268 269 266 263 265 268 267 264 262 264 267 268 270 270 268 270 275 280 283 289 295 297 299 306 308 303 295 281 275 275 273 270 269 271 276 279 280 285 289
212 213 215 218 221 223 224 224 222 220 218 216 215 210 203 207 221 228 231 236 237 234 235 239 238 242 249 255 261 263 263 265 262 256 255 257 259 260 260 262 267 272 272 271 271 269 268 265 260 257 259 263 266 267 268 268 268 269 270 270 269 270 276 279 278 282 289 293 298 306 308 302 295 284 274 273 272 272 271 270 272 276 280 284 286
214 215 216 219 222 224 226 227 226 225 222 216 209 205 208 217 227 237 241 240 240 239 242 247 244 241 248 256 260 262 263 264 263 263 265 266 266 266 268 272 277 279 279 280 279 277 276 274 271 270 271 272 273 274 275 275 274 272 270 270 272 275 279 280 277 281 288 294 298 302 304 299 294 289 281 275 273 274 276 276 276 277 280 283 284
215 215 216 219 223 227 228 225 224 224 224 220 212 206 212 225 233 241 245 242 239 242 250 259 258 249 247 253 258 261 263 263 264 265 265 265 266 267 271 277 279 279 278 278 277 279 281 280 278 277 278 280 280 279 280 280 280 277 274 274 277 280 282 282 284 290 294 296 297 298 297 294 291 291 288 282 278 277 280 282 282 280 281 284 287
215 214 212 213 220 227 229 226 224 223 220 217 213 208 210 219 229 235 241 241 238 239 246 253 256 254 251 253 257 261 263 263 263 264 264 265 265 267 270 274 277 277 275 273 273 276 281 281 279 277 277 279 281 282 284 285 287 285 281 280 281 282 283 284 288 292 292 294 295 294 292 292 290 291 293 291 287 285 284 284 285 286 287 288 291
213 216 215 213 217 222 227 229 229 226 220 214 212 210 210 216 225 230 235 238 237 238 241 243 247 251 253 253 256 264 267 261 259 262 264 265 268 270 270 271 275 277 276 275 275 277 279 278 276 276 277 281 285 289 291 288 289 288 284 281 280 280 283 286 288 289 289 290 292 291 291 292 293 293 295 295 292 290 290 287 284 285 288 289 290
211 218 220 220 219 218 223 229 228 225 222 219 215 213 215 222 228 231 231 233 236 238 240 241 244 248 249 248 251 259 262 258 259 262 263 265 269 271 272 275 276 273 269 270 272 275 276 275 275 277 281 285 287 289 289 286 285 286 283 279 279 279 283 288 290 291 291 290 289 289 291 293 294 297 299 299 295 293 294 292 287 286 286 286 285
212 218 224 223 221 222 225 227 225 219 217 218 218 218 221 227 231 234 235 236 239 240 239 239 241 243 244 243 245 249 250 249 252 256 258 262 266 270 275 277 274 269 269 270 270 272 274 275 278 282 285 286 287 287 287 286 287 287 284 279 278 280 283 287 290 291 291 290 289 289 290 291 294 299 302 302 300 297 296 295 292 290 289 287 285
212 217 224 224 224 226 226 223 222 222 220 218 220 222 226 230 233 236 239 242 246 247 246 243 242 241 241 241 243 246 246 244 245 248 251 253 259 266 270 269 268 270 275 277 275 272 271 273 278 283 284 284 287 288 288 287 288 287 283 279 279 282 284 286 289 290 290 290 289 290 290 291 296 302 304 304 304 301 298 296 295 294 293 291 289
211 213 219 222 222 221 216 213 218 224 224 223 224 226 227 230 233 236 239 242 246 250 251 251 250 249 247 246 246 247 246 243 243 245 247 248 254 260 261 263 268 273 276 274 271 269 269 270 274 278 281 282 285 287 288 288 288 285 286 288 289 289 288 288 289 289 291 293 293 293 294 294 298 303 304 304 305 302 299 297 296 296 295 294 292
209 210 214 219 219 216 213 214 219 221 221 222 224 225 228 234 238 240 240 242 244 247 249 252 254 253 252 252 251 248 244 240 239 243 246 247 250 254 258 264 269 271 271 269 268 270 270 269 272 276 279 279 279 282 287 288 284 282 288 294 294 291 288 287 286 286 290 295 294 293 293 294 297 299 299 299 299 298 296 295 295 296 296 296 295
211 211 216 217 214 211 212 215 219 220 220 225 229 232 240 251 254 250 246 246 247 249 250 252 254 254 254 253 253 251 247 241 240 242 244 246 248 253 260 268 271 270 270 270 269 269 268 268 271 275 276 277 278 280 284 283 281 284 290 293 290 285 283 284 284 285 289 291 291 292 293 294 294 295 296 297 295 294 294 293 294 294 293 293 293
207 210 217 220 215 214 219 225 231 236 238 245 250 249 250 255 259 256 253 252 251 251 252 252 253 255 256 255 254 254 251 249 248 248 250 254 254 250 251 259 265 267 267 268 269 271 274 278 279 278 278 280 283 284 283 281 281 286 291 292 287 283 284 285 285 286 288 288 289 291 293 293 292 292 294 294 293 294 295 295 295 293 291 291 292
204 210 218 223 219 222 232 243 249 252 254 258 261 262 261 262 264 263 261 259 255 253 254 253 253 254 255 255 256 256 257 256 253 251 254 258 252 241 242 251 258 262 264 267 269 272 276 281 282 282 284 286 285 285 284 284 284 287 290 291 286 282 282 284 283 283 284 284 286 289 289 290 291 292 294 294 294 295 296 297 297 294 293 293 293
200 207 218 228 231 232 241 252 256 255 257 261 264 266 267 267 265 263 261 260 258 258 258 257 257 257 257 258 258 258 258 256 251 247 247 249 247 247 252 255 258 263 268 271 273 274 274 274 275 278 282 285 286 286 288 289 289 291 292 294 293 290 290 291 291 290 291 291 292 293 294 294 295 295 294 294 295 296 295 296 297 296 294 293 293
201 212 227 241 251 252 247 253 261 263 264 265 265 265 264 263 262 260 257 255 255 256 258 259 261 261 260 258 257 255 254 251 248 245 245 248 249 251 254 256 258 264 270 272 274 275 274 272 274 277 279 281 286 290 295 297 298 299 299 300 302 303 304 306 306 306 306 305 306 305 304 304 303 301 300 297 296 295 294 294 295 295 296 297 298
219 230 239 245 251 252 248 250 255 258 262 264 263 261 256 253 255 256 255 252 250 252 256 260 262 262 260 256 252 249 248 245 243 241 241 242 243 245 250 253 255 256 258 261 267 271 271 270 275 279 278 279 285 290 294 297 299 302 305 308 312 314 318 321 321 320 320 319 318 316 315 314 313 311 309 305 301 298 295 294 294 296 300 304 307
223 222 224 229 236 240 242 245 247 250 256 256 254 254 247 243 249 255 255 252 250 252 257 258 260 261 260 259 254 243 232 228 228 230 231 233 238 241 242 242 241 241 246 254 264 270 269 268 271 275 277 283 290 290 292 295 298 304 313 321 327 329 331 334 334 335 336 334 331 327 325 324 324 325 327 328 326 321 318 316 313 310 311 314 317
198 194 189 194 209 216 222 233 241 243 245 240 233 235 226 221 227 231 230 228 230 235 244 253 262 265 263 265 269 247 216 201 201 209 216 221 224 223 221 220 212 212 242 262 271 275 278 279 281 285 292 302 305 305 308 310 314 323 330 332 336 339 341 344 347 352 353 350 346 343 342 344 346 350 354 356 357 356 353 349 341 333 330 326 325
131 134 136 133 135 138 131 131 143 141 136 130 113 106 114 131 142 153 155 148 151 156 153 151 112 78 113 81 58 55 76 106 137 172 192 207 214 212 221 221 194 186 214 244 262 282 311 312 313 322 327 330 329 327 327 331 339 345 343 341 348 357 359 359 1 4 3 1 1 359 1 5 9 10 12 13 15 17 16 13 8 4 1 355 349
106 109 111 110 108 107 104 105 107 103 96 92 94 97 103 108 111 113 113 113 114 113 107 106 107 102 100 95 88 82 76 76 87 109 118 106 281 299 280 272 173 148 170 216 249 87 96 93 354 349 331 326 331 331 339 352 357 358 2 9 16 19 17 16 17 15 13 16 22 26 28 29 28 27 28 29 29 31 31 30 29 26 24 21 17
104 106 106 104 101 98 96 97 97 96 95 94 94 94 93 92 90 90 92 93 94 95 97 99 100 98 98 95 85 79 76 72 67 62 58 50 51 56 57 66 84 94 103 119 143 152 163 189 213 215 208 175 95 349 351 358 4 16 25 28 28 25 21 19 17 17 21 31 40 40 36 33 31 32 34 33 33 35 36 38 37 35 33 32 29
104 101 100 100 98 95 93 92 93 94 95 95 94 92 89 87 86 87 89 91 93 94 94 94 95 95 95 94 89 83 78 73 71 69 66 63 62 65 70 77 86 95 108 126 147 161 168 170 166 164 159 147 113 0 4 9 13 20 25 26 24 21 20 17 13 14 22 33 37 33 29 28 29 32 33 32 30 29 31 34 35 35 36 34 30
105 102 101 100 99 97 96 95 96 97 96 94 93 92 92 93 92 89 88 89 91 90 87 84 87 90 90 90 88 84 79 76 77 79 78 76 77 85 90 94 100 109 117 124 130 133 137 141 142 147 144 99 32 17 19 21 18 16 16 15 13 13 16 17 14 15 24 32 29 24 23 25 27 26 27 25 22 21 22 22 19 18 18 16 14
105 104 103 101 99 99 99 98 97 96 95 94 94 95 99 102 102 98 94 90 88 86 85 85 84 84 85 86 85 84 83 84 87 89 90 91 94 100 105 108 112 115 115 110 103 99 99 102 102 99 71 33 19 12 10 9 7 4 4 3 3 9 21 23 16 19 28 31 26 21 22 25 25 23 20 16 12 13 17 16 12 9 7 3 358
105 100 96 94 93 93 92 90 87 84 85 86 90 95 99 100 100 98 95 93 89 86 85 85 85 88 89 89 90 93 94 96 97 97 98 101 104 106 108 111 113 113 109 101 94 89 88 87 82 67 38 10 357 354 359 359 355 355 360 3 4 12 26 30 26 31 36 33 27 25 24 21 16 8 357 350 349 355 1 3 0 360 359 356 349
113 105 95 90 87 83 80 80 77 74 74 73 80 91 94 91 88 84 79 76 78 80 79 77 80 90 95 95 97 100 101 101 101 101 102 105 108 109 111 112 112 110 108 107 107 106 102 92 72 44 20 0 351 355 2 4 5 9 15 20 22 26 31 32 29 31 30 23 18 18 12 359 349 342 339 340 344 349 353 352 350 349 347 343 336
117 114 107 101 101 96 88 82 78 75 73 67 78 99 103 99 91 81 79 85 88 79 72 71 79 92 98 100 102 104 105 105 104 104 105 105 109 113 115 115 115 114 114 116 119 119 112 93 70 49 26 10 4 4 9 17 23 27 30 32 31 31 31 28 23 22 20 12 2 356 349 343 340 340 341 340 341 343 345 344 343 344 342 337 332
117 113 106 98 97 105 109 101 90 87 85 87 104 120 118 114 99 87 96 111 121 111 83 80 90 98 102 105 109 110 109 108 107 108 108 108 112 117 119 120 121 122 126 134 139 136 126 104 77 57 40 27 18 14 15 18 22 27 32 32 25 18 12 7 3 3 1 353 345 341 337 335 333 332 331 331 332 335 337 336 335 336 335 332 331
120 114 104 91 85 96 111 108 99 97 95 94 103 114 114 108 100 96 100 107 108 102 97 99 103 105 108 112 113 110 109 108 107 109 113 117 121 124 125 127 129 129 137 155 168 167 159 127 68 54 41 27 20 16 13 10 8 12 18 15 6 358 356 353 351 348 342 335 330 328 327 327 327 326 325 326 327 327 327 327 325 324 324 324 324
138 131 122 96 76 84 106 109 106 107 104 99 97 97 96 95 94 93 93 93 93 95 97 98 100 103 108 112 111 108 106 106 106 109 114 118 123 127 127 129 132 135 155 192 198 192 200 272 349 19 13 7 10 10 5 2 3 5 3 357 352 352 351 348 346 343 336 328 323 324 328 331 332 333 333 334 334 332 330 329 326 321 319 319 318
159 155 149 113 82 96 117 119 116 116 112 106 98 89 81 82 87 91 92 91 91 93 95 95 97 101 103 101 99 100 102 103 105 109 110 111 114 118 121 125 130 131 312 303 281 228 281 324 334 350 351 354 3 4 1 2 3 0 356 353 351 351 349 348 350 351 347 342 342 344 347 347 347 346 345 344 342 340 339 338 336 333 329 325 321
163 159 143 123 121 127 129 127 127 125 122 117 107 94 82 78 79 82 87 93 94 91 89 92 97 97 94 92 90 92 96 100 103 108 106 102 100 98 104 140 146 86 358 346 347 358 357 341 330 332 336 346 2 8 6 4 1 357 353 350 348 349 349 349 352 353 351 350 351 352 353 352 350 348 345 343 341 339 337 336 335 334 333 330 329
162 158 145 137 139 140 136 136 137 133 131 131 123 109 100 95 84 75 80 90 91 85 83 95 102 96 90 91 96 104 108 108 112 119 119 100 73 44 0 321 356 14 15 14 9 1 351 340 337 342 346 358 13 15 8 1 359 357 353 346 342 344 344 344 345 345 345 344 344 343 344 344 342 340 339 337 335 333 333 333 333 333 333 333 332
168 168 167 162 156 151 144 141 138 126 124 135 136 126 121 118 99 75 76 86 83 79 87 100 107 102 94 92 104 129 138 135 141 155 166 115 24 359 342 333 344 358 3 3 356 348 345 349 356 358 1 10 11 6 1 359 359 358 353 343 338 338 337 337 337 337 336 335 334 333 334 334 333 334 334 333 332 330 329 330 330 331 330 330 329
178 176 177 177 174 167 159 154 151 146 147 151 148 155 174 180 176 196 205 209 220 189 130 118 123 124 110 100 118 144 149 151 164 183 210 239 285 316 318 316 324 332 330 327 322 317 322 342 355 351 346 352 353 353 357 2 2 359 352 344 338 335 332 330 329 327 326 325 325 325 326 326 327 328 328 327 326 325 323 323 324 324 324 324 323
188 183 180 182 185 180 170 164 166 173 183 191 190 191 200 203 205 199 191 200 222 229 216 199 189 160 130 118 136 143 139 155 172 185 222 256 269 280 286 292 298 301 302 303 303 304 317 347 4 353 346 348 349 351 355 360 358 354 349 344 338 333 329 327 326 326 326 326 325 324 324 324 324 324 323 322 321 319 317 316 316 316 315 313 312
194 185 182 184 187 186 183 184 186 186 191 200 204 208 212 214 215 192 173 174 193 209 215 221 217 189 152 140 141 136 148 175 171 173 218 254 260 259 264 278 288 286 288 295 302 311 329 350 353 345 342 342 343 344 349 351 348 344 341 340 337 334 332 330 330 331 330 329 328 325 323 322 320 319 319 320 319 316 312 310 311 312 308 301 303
194 188 189 190 191 194 199 201 198 193 192 196 202 209 215 208 189 164 150 150 161 175 182 182 177 164 148 144 142 134 168 185 178 179 223 248 245 241 253 274 286 286 291 301 306 311 318 324 326 326 325 324 326 330 336 339 337 334 333 332 330 328 327 327 327 328 328 327 325 323 322 321 320 319 320 322 322 320 314 308 309 311 307 298 299
185 186 197 203 206 211 214 211 207 204 201 201 205 210 211 207 196 168 147 144 147 150 147 147 149 151 152 153 151 155 192 203 210 234 253 247 240 239 247 264 275 279 284 289 288 286 290 295 301 305 309 312 315 320 326 330 329 328 327 325 322 321 321 322 323 324 325 324 323 321 320 319 320 320 322 326 328 329 325 316 311 310 307 299 301
177 178 177 175 183 192 195 196 202 206 206 207 213 216 219 231 246 250 237 224 175 134 136 142 147 153 159 162 168 191 206 212 226 247 251 236 235 238 243 255 266 271 270 268 265 269 275 281 287 294 300 305 310 316 322 326 326 325 323 321 319 318 318 319 320 322 323 322 321 319 317 317 317 319 322 325 328 329 328 326 320 315 305 299 307
182 177 167 159 160 165 163 165 178 186 184 180 183 185 198 223 235 231 216 204 167 136 142 148 151 155 160 166 183 210 224 230 237 244 232 212 220 229 232 234 239 246 248 250 255 263 271 277 284 293 299 304 311 316 320 321 320 319 319 318 316 316 315 316 318 320 320 319 318 318 318 318 318 319 322 324 325 325 326 332 339 341 332 316 316
189 178 167 165 169 173 168 161 162 166 165 164 169 180 185 192 202 208 205 191 159 141 146 152 154 155 158 166 186 211 230 237 230 212 192 192 205 216 223 226 234 242 249 255 261 268 276 284 291 296 302 308 312 313 314 313 314 315 314 314 313 312 313 315 317 318 319 319 319 320 321 321 321 322 323 323 323 324 329 343 358 2 359 347 336
188 179 173 174 176 180 189 193 192 190 188 189 203 216 211 199 199 211 204 179 155 146 150 155 156 154 156 164 183 208 224 229 220 202 194 198 208 217 222 229 240 249 254 258 263 270 279 287 291 295 300 304 306 306 307 310 313 314 313 312 312 313 315 318 319 321 321 321 320 320 321 322 324 326 327 328 331 337 349 2 7 2 356 352 347
180 182 185 184 181 184 195 199 195 192 192 190 188 186 176 164 167 178 169 154 145 144 150 159 163 164 169 180 198 215 224 228 229 225 217 216 220 222 222 229 240 248 254 262 272 281 288 293 298 301 304 305 306 306 308 313 315 316 317 317 318 320 322 323 323 324 324 323 322 323 323 325 329 331 333 341 352 359 360 358 354 350 347 345 344
173 179 186 188 188 191 194 193 188 186 189 190 182 162 146 143 151 154 147 136 123 121 134 153 166 174 181 189 209 237 249 247 245 247 241 233 230 227 232 243 255 264 274 283 289 294 300 306 311 312 312 311 313 314 316 318 320 321 322 324 325 327 328 328 327 327 327 327 328 328 326 328 333 340 348 357 3 2 359 359 357 352 344 338 337
172 165 160 168 182 187 185 180 180 186 194 200 194 171 155 157 161 159 157 154 128 120 130 146 157 162 162 159 169 255 281 263 257 263 267 270 273 276 280 287 293 297 301 302 301 304 308 313 315 315 314 314 316 318 321 323 324 325 327 327 329 331 332 331 330 333 336 337 337 334 331 332 339 351 1 5 5 5 5 4 359 352 344 336 333
175 165 156 158 170 179 180 174 170 177 189 197 194 175 161 165 170 170 178 190 185 174 184 207 214 206 191 151 121 329 302 287 288 292 291 291 294 295 297 301 304 306 308 309 310 312 315 317 318 317 317 316 318 321 323 325 327 328 329 329 331 333 335 335 337 343 346 347 346 343 339 341 350 0 3 4 6 5 358 351 346 343 340 335 326
175 170 168 167 165 168 176 176 171 170 177 180 176 164 156 156 156 156 159 166 175 192 221 246 254 257 257 229 219 245 262 263 275 287 289 292 298 301 302 306 310 312 315 318 318 319 322 323 322 321 320 319 319 321 323 324 327 328 328 329 331 334 336 338 345 350 353 353 353 350 348 353 7 10 1 355 351 347 345 343 341 338 336 333 328
175 167 166 171 170 167 167 170 172 176 181 181 180 180 180 182 188 195 197 199 207 211 209 210 215 222 224 231 250 269 277 281 293 302 303 305 307 307 307 310 313 317 321 323 323 324 326 324 322 320 319 318 318 319 321 323 326 327 327 328 331 333 336 343 351 354 355 355 355 355 358 9 19 10 349 337 336 341 345 345 342 338 336 335 333
183 174 170 177 182 183 181 181 183 184 184 185 187 191 195 201 211 219 227 237 242 233 220 215 218 221 228 249 272 285 292 297 301 304 306 308 309 309 309 312 315 320 323 325 326 327 325 322 319 318 317 316 317 319 321 325 327 327 326 327 330 332 338 348 355 355 355 357 357 358 1 8 6 349 334 332 340 348 351 349 344 341 340 337 335